STARLINK-37504, 68913

Orbit data source: Space-Track

STARLINK-37504, 68913 is a payload satellite owned by SpaceX/Seattle (US) in SSO that was launched on Thu, 30 Apr 2026 UTC via an FALCON 9 launch vehicle from the Air Force Western Test Range (AFWTR). Payload-class satellites include a variety of spacecraft equipped with specific instruments for various scientific and technological missions. These include communications satellites like Starlink; space stations such as the ISS; scientific satellites like the Hubble; Earth observation satellites from companies like Planet Labs, Umbra, and HawkEye 360; GPS; miniature CubeSats for education and research; and military/defense satellites.

Not visible in the next 10 days
Identifier
68913, 2026-097U
Orbit
SSO
Country
Flag of USUS
Related business
Manufacturer
SpaceX/Seattle
Mission
Operational spacecraft
Bus & Motor
STARLINK V2MO, Unknown motor
Mass
575 kg wet, ~530 kg dry
Launch date (UTC)
2026-04-30 (6 days ago)
Launch vehicle
FALCON 9
Launch site
Air Force Western Test Range (AFWTR)
Object type
Payload
Rocket body
Debris
Shape & HBR
Unknown
Radar Cross Section
RCS unknown

Expand to show TLE details & history
Last TLE update: 5 hours ago

TLE from 5 hours ago
0 STARLINK-37504
1 68913U 26097U   26126.25002315 -.02188250  13178-2 -61220-2 0  9999
2 68913  97.2877 321.3056 0001483  74.7703 145.4236 15.93794662  2169
Epoch: 2026-05-06T06:00Z
TLE epoch observation values (Epoch: 2026-05-06T06:00:02.000Z)
Latitude
-40.0964°
Longitude
-178.96222°
Altitude
307.957 km
Speed
7.721 km/s
True Right ascension
09h 00m 38s
True Declination
-39° 54' 56"
Sunlit
Object was in daylight at epoch
Visualization orbit readout
Latitude
Unknown
Longitude
Unknown
Altitude
Unknown
Speed
Unknown
Apparent Right ascension
Unknown
Apparent Declination
Unknown
Sunlit
N/A
Visualization observer readout
Local Sidereal Time
18:52:35
Azimuth
Unknown
Elevation
Unknown
Doppler factor
Unknown
Orbital elements
Apogee altitude
289.527 km
Perigee altitude
287.549 km
Semi-major axis
6,666.675 km
Eccentricity
0.00015
Inclination
97.2877°
RAAN
321.3056°
Arg. of periapsis
74.7703°
True anomaly
145.43324°
Mean anomaly
145.4236°
Eccentric anomaly
145.42842°
Mean motion
3.9873 °/min
Orbital period
90.29 mins
BSTAR
-0.006122
Loading maneuver chart data...
Computing Atmospheric mass density...
Loading historical data...
Loading historical data...
Loading historical data...
Loading historical data...
Loading historical data...
Loading historical data...
Loading historical data...

Documentation

Showing up to 5 results
|